(312223) = 2003 US298 = 2005 EM126 = 2007 WK55

Discovered at Pla D'Arguines on 2007-11-30 by R. Ferrando.

Orbit

Orbit type: Main Belt

Note: WebGL enabled browser required.

epoch2023-02-25.0
epoch JD2460000.5
perihelion date2019-08-18.08142
perihelion JD2458713.58142
argument of perihelion (°)114.54115
ascending node (°)3.86313
inclination (°)2.38753
eccentricity0.1220441
perihelion distance (AU)2.1229238
Tisserand w.r.t. Jupiter3.5
ΔV w.r.t. Earth (km/sec)9.1
semimajor axis (AU)2.4180301
mean anomaly (°)337.33575
mean daily motion (°/day)0.26212670
aphelion distance (AU)2.713
period (years)3.76
P-vector [x]-0.47563663
P-vector [y]0.79123265
P-vector [z]0.38434450
Q-vector [x]-0.87963738
Q-vector [y]-0.42922426
Q-vector [z]-0.20495027
absolute magnitude17.85
phase slope0.15
uncertainty0
referenceMPO 730489
observations used200
oppositions10
arc length (days)7009
first opposition used2003
last opposition used2022
residual rms (arc-secs)0.78
perturbers coarse indicatorM-v
perturbers precise indicator003El
first observation date used2003-10-16.0
last observation date used2022-12-24.0
computer nameMPCLINUX
JD of orbit computation2456966.857559
perihelion JD uncertainty (days)1.2268E-04
argument of perihelion uncertainty (°)1.3068E-04
ascending node uncertainty (°)1.2649E-04
inclination uncertainty (°)6.7334E-06
eccentricity uncertainty 6.2606E-08
perihelion distance uncertainty (AU)1.5372E-07
Minimum Orbit Intersection Distances (in AU)
for orbit epoch: 2460000.5, reference: E2022-YF5
Mercury1.7963
Venus1.40436
Earth1.13999
Mars0.47775
Jupiter2.35427
Saturn6.8785
Uranus16.1995
Neptune27.3412

Observations

205 total observations over interval: 2003 10 16.36791 – 2022 12 24.214584
These data are available for download (format description).

Date (UT) J2000 RA J2000 Dec Magn Location Ref
2003 10 16.36791 01 55 44.26 +13 36 59.9 21.1 V 691 – Steward Observatory, Kitt Peak-Spacewatch MPS 109867
2003 10 16.39718 01 55 42.50 +13 36 53.2 21.7 V 691 – Steward Observatory, Kitt Peak-Spacewatch MPS 109867
2003 10 16.42688 01 55 40.73 +13 36 46.3 21.6 V 691 – Steward Observatory, Kitt Peak-Spacewatch MPS 109867
2003 10 26.27974 01 45 54.52 +12 54 53.1 21.6 V 291 – LPL/Spacewatch II MPS 109867
2003 10 26.30362 01 45 53.08 +12 54 46.3 21.3 V 291 – LPL/Spacewatch II MPS 109867
2003 10 26.32713 01 45 51.61 +12 54 40.1 21.2 V 291 – LPL/Spacewatch II MPS 109867
2005 03 08.42962 13 25 49.26 -09 21 33.1 20.3 R G96 – Mt. Lemmon Survey MPS 129244
2005 03 08.43619 13 25 49.05 -09 21 32.2 20.4 R G96 – Mt. Lemmon Survey MPS 129244
2005 03 08.44280 13 25 48.82 -09 21 31.5 19.8 R G96 – Mt. Lemmon Survey MPS 129244
2005 03 08.44937 13 25 48.59 -09 21 30.8 20.1 R G96 – Mt. Lemmon Survey MPS 129244
2005 03 10.39832 13 24 46.41 -09 18 05.8 20.4 R G96 – Mt. Lemmon Survey MPS 129244
2005 03 10.40429 13 24 46.18 -09 18 04.8 20.6 R G96 – Mt. Lemmon Survey MPS 129244
2005 03 10.41028 13 24 45.95 -09 18 04.4 21.0 R G96 – Mt. Lemmon Survey MPS 129244
2005 03 10.41626 13 24 45.76 -09 18 03.6 20.5 R G96 – Mt. Lemmon Survey MPS 129244
2005 05 04.14665 12 40 22.90 -05 51 00.8 21.0 V 691 – Steward Observatory, Kitt Peak-Spacewatch MPS 231867
2005 05 04.15979 12 40 22.46 -05 50 58.8 21.2 V 691 – Steward Observatory, Kitt Peak-Spacewatch MPS 231867
2005 05 04.17295 12 40 22.06 -05 50 56.8 21.2 V 691 – Steward Observatory, Kitt Peak-Spacewatch MPS 231867
2007 11 17.31440 04 25 27.14 +25 20 03.4 20.2 V 691 – Steward Observatory, Kitt Peak-Spacewatch MPS 231867
2007 11 17.33499 04 25 25.84 +25 20 02.5 20.3 V 691 – Steward Observatory, Kitt Peak-Spacewatch MPS 231867
2007 11 17.35608 04 25 24.52 +25 20 01.4 20.5 V 691 – Steward Observatory, Kitt Peak-Spacewatch MPS 231867
2007 11 30.88466 04 10 48.92 +24 58 39.5 20.4 V 941 – Observatorio Pla D'Arguines MPS 229973
2007 11 30.89115 04 10 48.50 +24 58 38.9 20.2 V 941 – Observatorio Pla D'Arguines MPS 229973
2007 11 30.89418 04 10 48.28 +24 58 38.1 20.2 V 941 – Observatorio Pla D'Arguines MPS 229973
2007 11 30.89850 04 10 48.00 +24 58 37.6 20.3 V 941 – Observatorio Pla D'Arguines MPS 229973
2007 12 01.81386 04 09 47.35 +24 56 35.5 20.2 V 941 – Observatorio Pla D'Arguines MPS 229973
2007 12 01.81774 04 09 47.12 +24 56 34.8 20.2 V 941 – Observatorio Pla D'Arguines MPS 229973
2007 12 01.81929 04 09 46.97 +24 56 34.8 20.1 V 941 – Observatorio Pla D'Arguines MPS 229973
2007 12 01.82007 04 09 46.93 +24 56 34.6 20.0 V 941 – Observatorio Pla D'Arguines MPS 229973
2007 12 01.82162 04 09 46.82 +24 56 34.6 20.3 V 941 – Observatorio Pla D'Arguines MPS 229973
2007 12 05.92854 04 05 17.83 +24 46 42.2 20.0 V 941 – Observatorio Pla D'Arguines MPS 229973
2007 12 05.93010 04 05 17.72 +24 46 41.7 19.9 V 941 – Observatorio Pla D'Arguines MPS 229973
2007 12 05.93088 04 05 17.66 +24 46 41.7 20.1 V 941 – Observatorio Pla D'Arguines MPS 229973
2007 12 05.93323 04 05 17.50 +24 46 41.3 20.0 V 941 – Observatorio Pla D'Arguines MPS 229973
2007 12 06.90895 04 04 15.29 +24 44 12.7 20.5 V 941 – Observatorio Pla D'Arguines MPS 229973
2007 12 06.91052 04 04 15.19 +24 44 12.1 20.0 V 941 – Observatorio Pla D'Arguines MPS 229973
2007 12 06.91365 04 04 14.93 +24 44 12.1 20.5 V 941 – Observatorio Pla D'Arguines MPS 229973
2007 12 06.91522 04 04 14.83 +24 44 11.3 20.4 V 941 – Observatorio Pla D'Arguines MPS 229973
2007 12 19.20733 03 52 45.04 +24 10 56.6 20.3 V G96 – Mt. Lemmon Survey MPS 231867
2007 12 19.21813 03 52 44.58 +24 10 54.8 20.5 V G96 – Mt. Lemmon Survey MPS 231867
2007 12 19.22877 03 52 44.00 +24 10 52.8 20.4 V G96 – Mt. Lemmon Survey MPS 231867
2007 12 19.23941 03 52 43.50 +24 10 51.2 20.2 V G96 – Mt. Lemmon Survey MPS 231867
2011 12 29.28619 07 34 44.63 +26 01 02.3 21.0 V 691 – Steward Observatory, Kitt Peak-Spacewatch MPS 404702
2011 12 29.30424 07 34 43.40 +26 01 05.0 19.7 V 691 – Steward Observatory, Kitt Peak-Spacewatch MPS 404702
2011 12 29.32229 07 34 42.39 +26 01 07.9 20.3 V 691 – Steward Observatory, Kitt Peak-Spacewatch MPS 404702
2012 01 02.25924 07 30 42.50 +26 10 41.0 20.1 V 691 – Steward Observatory, Kitt Peak-Spacewatch MPS 405977
2012 01 02.27702 07 30 41.32 +26 10 43.5 20.1 V 691 – Steward Observatory, Kitt Peak-Spacewatch MPS 405977
2012 01 02.29479 07 30 40.16 +26 10 46.0 20.1 V 691 – Steward Observatory, Kitt Peak-Spacewatch MPS 405977
2014 08 27.47841 00 04 04.187 -00 30 38.61 21.5 w F51 – Pan-STARRS 1, Haleakala MPS 529529
2014 08 27.48980 00 04 03.710 -00 30 40.89 21.6 w F51 – Pan-STARRS 1, Haleakala MPS 529529
2014 08 27.50117 00 04 03.236 -00 30 43.49 21.5 w F51 – Pan-STARRS 1, Haleakala MPS 529529
2014 08 27.51264 00 04 02.766 -00 30 45.96 21.5 w F51 – Pan-STARRS 1, Haleakala MPS 529529
2014 09 17.34019 23 46 46.438 -02 04 20.75 20.9 w F51 – Pan-STARRS 1, Haleakala MPS 532937
2014 09 17.35204 23 46 45.752 -02 04 24.22 20.8 w F51 – Pan-STARRS 1, Haleakala MPS 532937
2014 09 17.36389 23 46 45.067 -02 04 27.76 20.9 w F51 – Pan-STARRS 1, Haleakala MPS 532937
2014 09 17.37576 23 46 44.372 -02 04 31.49 20.7 w F51 – Pan-STARRS 1, Haleakala MPS 532937
2014 09 19.33470 23 44 53.997 -02 14 26.18 20.6 w F51 – Pan-STARRS 1, Haleakala MPS 536237
2014 09 19.34615 23 44 53.330 -02 14 29.71 20.7 w F51 – Pan-STARRS 1, Haleakala MPS 536237
2014 09 19.35757 23 44 52.657 -02 14 33.11 20.5 w F51 – Pan-STARRS 1, Haleakala MPS 536237
2014 09 19.36903 23 44 51.990 -02 14 36.61 20.7 w F51 – Pan-STARRS 1, Haleakala MPS 536237
2014 10 14.10701 23 24 04.77 -04 01 49.0 22.1 V G96 – Mt. Lemmon Survey MPS 540288
2014 10 14.11638 23 24 04.40 -04 01 50.9 20.8 V G96 – Mt. Lemmon Survey MPS 540288
2014 10 14.12579 23 24 04.04 -04 01 53.0 20.8 V G96 – Mt. Lemmon Survey MPS 540288
2014 10 14.13517 23 24 03.58 -04 01 54.7 22.1 V G96 – Mt. Lemmon Survey MPS 540288
2016 02 09.54640 10 31 39.140 +11 59 05.77 20.6 w F51 – Pan-STARRS 1, Haleakala MPS 682046
2016 02 09.55982 10 31 38.390 +11 59 09.14 20.6 w F51 – Pan-STARRS 1, Haleakala MPS 682046
2016 02 09.57321 10 31 37.667 +11 59 12.53 20.5 w F51 – Pan-STARRS 1, Haleakala MPS 682046
2016 02 09.58676 10 31 36.919 +11 59 15.88 20.5 w F51 – Pan-STARRS 1, Haleakala MPS 682046
2016 02 11.20460 10 30 11.38 +12 06 03.9 20.7 r G45 – Space Surveillance Telescope, Atom Site MPS 685878
2016 02 11.20996 10 30 11.05 +12 06 05.5 20.5 r G45 – Space Surveillance Telescope, Atom Site MPS 685878
2016 02 11.21488 10 30 10.80 +12 06 07.1 20.6 r G45 – Space Surveillance Telescope, Atom Site MPS 685878
2016 02 11.21980 10 30 10.34 +12 06 06.9 19.7 r G45 – Space Surveillance Telescope, Atom Site MPS 685878
2016 02 11.37984 10 30 01.822 +12 06 50.72 20.2 w F51 – Pan-STARRS 1, Haleakala MPS 682046
2016 02 11.38249 10 30 01.669 +12 06 51.34 20.1 w F51 – Pan-STARRS 1, Haleakala MPS 682046
2016 02 11.39171 10 30 01.144 +12 06 53.76 20.1 w F51 – Pan-STARRS 1, Haleakala MPS 682046
2016 02 11.39428 10 30 01.002 +12 06 54.35 20.3 w F51 – Pan-STARRS 1, Haleakala MPS 682046
2016 02 11.40336 10 30 00.486 +12 06 56.84 20.2 w F51 – Pan-STARRS 1, Haleakala MPS 682046
2016 02 11.40593 10 30 00.342 +12 06 57.45 20.1 w F51 – Pan-STARRS 1, Haleakala MPS 682046
2016 02 11.41498 10 29 59.827 +12 06 59.76 20.0 w F51 – Pan-STARRS 1, Haleakala MPS 682046
2016 02 14.20670 10 27 25.06 +12 18 58.3 20.1 r G45 – Space Surveillance Telescope, Atom Site MPS 685878
2016 02 14.21155 10 27 24.77 +12 18 59.9 20.3 r G45 – Space Surveillance Telescope, Atom Site MPS 685878
2016 02 14.21630 10 27 24.49 +12 19 01.1 20.4 r G45 – Space Surveillance Telescope, Atom Site MPS 685878
2016 02 14.22115 10 27 24.18 +12 19 02.7 20.7 r G45 – Space Surveillance Telescope, Atom Site MPS 685878
2016 02 14.22593 10 27 23.92 +12 19 03.4 20.2 r G45 – Space Surveillance Telescope, Atom Site MPS 685878
2016 02 18.21966 10 23 33.47 +12 36 22.6 19.7 V G96 – Mt. Lemmon Survey MPS 685878
2016 02 18.22576 10 23 33.10 +12 36 23.8 19.8 V G96 – Mt. Lemmon Survey MPS 685878
2016 02 18.23181 10 23 32.74 +12 36 25.5 19.8 V G96 – Mt. Lemmon Survey MPS 685878
2016 02 18.23787 10 23 32.37 +12 36 27.2 19.8 V G96 – Mt. Lemmon Survey MPS 685878
